Voltar ao catálogo

CZ-6A DEB

AtivoPO
NORAD 60852·DEBRIS·🇨🇳 China

Lançado Aug 6, 2024 de Taiyuan Satellite Launch Center

Loading…

Próximas Passagens (próximas 24 horas)

TLE

AtualizadoSource: Space-Track

Época: Sep 14, 2026, 14:16 UTC

1 60852U 24140JF  26257.59467572  .00000191  00000-0  13804-3 0  9999
2 60852  88.3966 223.2185 0389950  95.0998 269.4778 13.60682340103460

Acompanhe CZ-6A DEB em tempo real com AllMySat

Download on the App Store